This demonstration page uses our WeatherBlox Daily Observations layout. Learn more.

Left ArrowRight Arrow

39.01783, -85.05884

Hourly Observations for March 25, 2018

Temp ( °F °C ) Dew Point ( °F °C ) Humidity (%) Winds ( mph kmh ) Pressure ( in mb ) Visibility ( mi km ) Precip ( " mm )
12:52 am 00:52 Cloudy 36 2.2 28 -2.2 73 73 NE 21 33 30.12 1020 10 16 N/A
1:52 am 01:52 Mostly Cloudy 35 1.7 26 -3.3 70 70 NE 18 30 30.14 1021 10 16 N/A
2:52 am 02:52 Partly Cloudy 33 0.6 21 -6.1 61 61 NE 16 26 30.15 1021 10 16 N/A
3:52 am 03:52 Partly Cloudy 32 undefined 18 -7.8 56 56 ENE 17 28 30.15 1021 10 16 N/A
4:52 am 04:52 Clear 32 undefined 17 -8.3 54 54 ENE 17 28 30.14 1021 10 16 N/A
5:52 am 05:52 Mostly Clear 31 -0.6 16 -8.9 54 54 ENE 18 30 30.16 1022 10 16 N/A
6:52 am 06:52 Partly Cloudy 30 -1.1 17 -8.3 58 58 NE 18 30 30.20 1023 10 16 N/A
7:52 am 07:52 Mostly Sunny 29 -1.7 16 -8.9 58 58 NE 15 24 30.23 1024 10 16 N/A
8:52 am 08:52 Mostly Sunny 29 -1.7 15 -9.4 56 56 ENE 21 33 30.24 1024 10 16 N/A
9:52 am 09:52 Mostly Sunny 31 -0.6 15 -9.4 52 52 ENE 16 26 30.24 1024 10 16 N/A
10:52 am 10:52 Partly Cloudy 33 0.6 15 -9.4 47 47 ENE 13 20 30.25 1025 10 16 N/A
11:52 am 11:52 Partly Cloudy 36 2.2 15 -9.4 42 42 NE 18 30 30.25 1025 10 16 N/A
12:52 pm 12:52 Mostly Cloudy 39 3.9 16 -8.9 39 39 NE 15 24 30.25 1024 10 16 N/A
1:52 pm 13:52 Mostly Cloudy 41 5 17 -8.3 38 38 ENE 16 26 30.24 1024 10 16 N/A
2:52 pm 14:52 Mostly Cloudy 44 6.7 18 -7.8 35 35 ENE 18 30 30.22 1023 10 16 N/A
3:52 pm 15:52 Mostly Cloudy 46 7.8 18 -7.8 32 32 ENE 12 19 30.21 1023 10 16 N/A
4:52 pm 16:52 Mostly Cloudy 47 8.3 17 -8.3 30 30 ENE 17 28 30.19 1023 10 16 N/A
5:52 pm 17:52 Mostly Cloudy 47 8.3 17 -8.3 30 30 NE 16 26 30.22 1023 10 16 N/A
6:52 pm 18:52 Mostly Cloudy 46 7.8 15 -9.4 29 29 ENE 15 24 30.22 1024 10 16 N/A
7:52 pm 19:52 Partly Cloudy 45 7.2 14 -10 29 29 NE 13 20 30.23 1024 10 16 N/A
8:52 pm 20:52 Partly Cloudy 42 5.6 15 -9.4 33 33 ENE 20 31 30.23 1024 10 16 N/A
9:52 pm 21:52 Mostly Clear 41 5 15 -9.4 35 35 ENE 16 26 30.25 1024 10 16 N/A
10:52 pm 22:52 Mostly Clear 39 3.9 15 -9.4 38 38 ENE 14 22 30.25 1025 10 16 N/A
11:52 pm 23:52 Mostly Clear 38 3.3 14 -10 37 37 ENE 16 26 30.24 1024 10 16 N/A

Powered by AerisWeather